When you browse on this site, cookies collect data to enhance your experience and personalize the content and advertising you see.
Visit our Privacy Policy to learn more. By continuing to use the site, you agree to this use of cookies and data.
  • In Austria
  • List of Countries
  • For 7 days
  • Water Temperature
  • Satellite Maps
  • Weather Map
  • News
  • Weather Widgets
  • user-avatar
    Login

    Hourly Weather Rohyntsi

    Today, 21 February, Thursday

    Time Temperature Precipitation Wind Pressure Humidity
    00:00 -1°C° 0.1 mm 5 mps 744 mmHg 90%
    01:00 -2°C° 0.1 mm 6 mps 744 mmHg 90%
    02:00 -1°C° 0 mm 5 mps 743 mmHg 93%
    03:00 -2°C° 0.1 mm 6 mps 743 mmHg 91%
    04:00 -2°C° 0.1 mm 7 mps 743 mmHg 90%
    05:00 -2°C° 0.1 mm 7 mps 743 mmHg 89%
    06:00 -3°C° 0 mm 7 mps 744 mmHg 87%
    07:00 -6°C° 0 mm 7 mps 744 mmHg 85%
    08:00 -6°C° 0 mm 6 mps 745 mmHg 84%
    09:00 -7°C° 0.1 mm 7 mps 745 mmHg 82%
    10:00 -7°C° 0.1 mm 8 mps 745 mmHg 80%
    11:00 -7°C° 0.1 mm 8 mps 746 mmHg 79%
    12:00 -7°C° 0.1 mm 8 mps 746 mmHg 79%
    13:00 -7°C° 0.1 mm 8 mps 746 mmHg 78%
    14:00 -7°C° 0.1 mm 8 mps 746 mmHg 78%
    15:00 -8°C° 0.1 mm 7 mps 747 mmHg 79%
    16:00 -8°C° 0.1 mm 6 mps 747 mmHg 80%
    17:00 -9°C° 0.1 mm 6 mps 747 mmHg 81%
    18:00 -10°C° 0 mm 5 mps 748 mmHg 82%
    19:00 -10°C° 0 mm 5 mps 748 mmHg 83%
    20:00 -11°C° 0 mm 5 mps 748 mmHg 85%
    21:00 -12°C° 0 mm 5 mps 749 mmHg 86%
    22:00 -12°C° 0 mm 5 mps 749 mmHg 87%
    23:00 -12°C° 0 mm 5 mps 749 mmHg 88%

    Tomorrow, 22 February, Friday

    Time Temperature Precipitation Wind Pressure Humidity
    00:00 -13°C° 0 mm 5 mps 749 mmHg 88%
    01:00 -12°C° 0 mm 4 mps 749 mmHg 88%
    02:00 -14°C° 0 mm 4 mps 750 mmHg 89%
    03:00 -14°C° 0 mm 4 mps 750 mmHg 89%
    04:00 -15°C° 0 mm 4 mps 750 mmHg 90%
    05:00 -15°C° 0 mm 4 mps 750 mmHg 91%
    06:00 -15°C° 0 mm 4 mps 750 mmHg 91%
    07:00 -15°C° 0 mm 4 mps 751 mmHg 90%
    08:00 -15°C° 0 mm 4 mps 751 mmHg 90%
    09:00 -15°C° 0 mm 5 mps 751 mmHg 88%
    10:00 -14°C° 0 mm 5 mps 752 mmHg 86%
    11:00 -14°C° 0 mm 6 mps 752 mmHg 83%
    12:00 -12°C° 0 mm 6 mps 752 mmHg 82%
    13:00 -12°C° 0 mm 6 mps 752 mmHg 80%
    14:00 -11°C° 0 mm 6 mps 752 mmHg 78%
    15:00 -11°C° 0 mm 6 mps 753 mmHg 80%
    16:00 -11°C° 0 mm 5 mps 753 mmHg 81%
    17:00 -12°C° 0 mm 5 mps 753 mmHg 83%
    18:00 -12°C° 0 mm 5 mps 754 mmHg 84%
    19:00 -13°C° 0 mm 5 mps 754 mmHg 86%
    20:00 -14°C° 0 mm 5 mps 755 mmHg 87%
    21:00 -14°C° 0 mm 5 mps 755 mmHg 89%
    22:00 -14°C° 0 mm 5 mps 756 mmHg 90%
    23:00 -14°C° 0 mm 4 mps 756 mmHg 91%

    Day after tomorrow, 23 February, Saturday

    Time Temperature Precipitation Wind Pressure Humidity
    00:00 -14°C° 0 mm 4 mps 756 mmHg 91%
    01:00 -14°C° 0 mm 4 mps 757 mmHg 92%
    02:00 -14°C° 0 mm 4 mps 757 mmHg 92%
    03:00 -14°C° 0 mm 5 mps 757 mmHg 91%
    04:00 -14°C° 0 mm 5 mps 758 mmHg 90%
    05:00 -14°C° 0 mm 5 mps 758 mmHg 89%
    06:00 -14°C° 0 mm 5 mps 759 mmHg 89%
    07:00 -15°C° 0 mm 5 mps 759 mmHg 89%
    08:00 -15°C° 0 mm 5 mps 760 mmHg 89%
    09:00 -14°C° 0 mm 5 mps 760 mmHg 88%
    10:00 -14°C° 0 mm 5 mps 761 mmHg 87%
    11:00 -14°C° 0 mm 6 mps 761 mmHg 86%
    12:00 -14°C° 0 mm 6 mps 761 mmHg 85%
    13:00 -14°C° 0 mm 6 mps 761 mmHg 85%
    14:00 -12°C° 0 mm 5 mps 761 mmHg 84%
    15:00 -13°C° 0 mm 5 mps 761 mmHg 86%
    16:00 -12°C° 0 mm 4 mps 762 mmHg 87%
    17:00 -13°C° 0 mm 3 mps 762 mmHg 88%
    18:00 -13°C° 0 mm 3 mps 762 mmHg 90%
    19:00 -14°C° 0 mm 3 mps 762 mmHg 91%
    20:00 -15°C° 0 mm 3 mps 762 mmHg 92%
    21:00 -16°C° 0 mm 3 mps 762 mmHg 92%
    22:00 -15°C° 0 mm 2 mps 762 mmHg 93%
    23:00 -16°C° 0 mm 2 mps 762 mmHg 93%

    24 February, Sunday

    Time Temperature Precipitation Wind Pressure Humidity
    00:00 -16°C° 0 mm 2 mps 762 mmHg 94%
    01:00 -16°C° 0 mm 2 mps 762 mmHg 94%
    02:00 -16°C° 0 mm 2 mps 762 mmHg 94%
    03:00 -16°C° 0 mm 2 mps 762 mmHg 94%
    04:00 -16°C° 0 mm 2 mps 762 mmHg 94%
    05:00 -16°C° 0 mm 2 mps 762 mmHg 95%
    06:00 -16°C° 0 mm 2 mps 762 mmHg 94%
    07:00 -13°C° 0 mm 1 mps 762 mmHg 93%
    08:00 -13°C° 0 mm 1 mps 762 mmHg 93%
    09:00 -11°C° 0 mm 1 mps 762 mmHg 89%
    10:00 -10°C° 0 mm 1 mps 762 mmHg 85%
    11:00 -8°C° 0 mm 1 mps 762 mmHg 81%
    12:00 -7°C° 0 mm 1 mps 762 mmHg 79%
    13:00 -6°C° 0 mm 1 mps 761 mmHg 77%
    14:00 -6°C° 0 mm 1 mps 761 mmHg 75%
    15:00 -7°C° 0 mm 1 mps 761 mmHg 78%
    16:00 -7°C° 0 mm 1 mps 761 mmHg 81%
    17:00 -8°C° 0 mm 1 mps 761 mmHg 85%
    18:00 -9°C° 0 mm 1 mps 761 mmHg 85%
    19:00 -9°C° 0 mm 1 mps 761 mmHg 85%
    20:00 -9°C° 0 mm 1 mps 762 mmHg 85%
    21:00 -9°C° 0 mm 1 mps 762 mmHg 85%
    22:00 -10°C° 0 mm 2 mps 762 mmHg 85%
    23:00 -12°C° 0 mm 2 mps 762 mmHg 85%

    25 February, Monday

    Time Temperature Precipitation Wind Pressure Humidity
    00:00 -12°C° 0 mm 2 mps 762 mmHg 85%
    01:00 -12°C° 0 mm 2 mps 762 mmHg 86%
    02:00 -12°C° 0 mm 2 mps 762 mmHg 86%
    03:00 -13°C° 0 mm 3 mps 761 mmHg 86%
    04:00 -13°C° 0 mm 3 mps 761 mmHg 87%
    05:00 -13°C° 0 mm 3 mps 761 mmHg 87%
    06:00 -12°C° 0 mm 3 mps 760 mmHg 88%
    07:00 -11°C° 0 mm 4 mps 760 mmHg 89%
    08:00 -10°C° 0 mm 4 mps 760 mmHg 89%
    09:00 -8°C° 0 mm 4 mps 760 mmHg 89%
    10:00 -7°C° 0 mm 5 mps 759 mmHg 89%
    11:00 -5°C° 0 mm 6 mps 759 mmHg 89%
    12:00 -4°C° 0 mm 6 mps 758 mmHg 89%
    13:00 -3°C° 0 mm 6 mps 757 mmHg 89%
    14:00 -3°C° 0 mm 7 mps 757 mmHg 89%
    15:00 -3°C° 0 mm 6 mps 756 mmHg 90%
    16:00 -3°C° 0 mm 6 mps 756 mmHg 91%
    17:00 -3°C° 0 mm 6 mps 755 mmHg 91%
    18:00 -3°C° 0 mm 6 mps 755 mmHg 91%
    19:00 -2°C° 0 mm 6 mps 755 mmHg 91%
    20:00 -2°C° 0 mm 6 mps 754 mmHg 91%
    21:00 -3°C° 0 mm 6 mps 754 mmHg 91%
    22:00 -3°C° 0 mm 6 mps 754 mmHg 92%
    23:00 -4°C° 0 mm 5 mps 754 mmHg 92%

    26 February, Tuesday

    Time Temperature Precipitation Wind Pressure Humidity
    00:00 -4°C° 0 mm 5 mps 753 mmHg 92%
    01:00 -5°C° 0 mm 5 mps 753 mmHg 92%
    02:00 -6°C° 0 mm 5 mps 753 mmHg 92%
    03:00 -6°C° 0 mm 5 mps 753 mmHg 93%
    04:00 -7°C° 0 mm 4 mps 752 mmHg 93%
    05:00 -7°C° 0 mm 4 mps 752 mmHg 94%
    06:00 -7°C° 0 mm 5 mps 752 mmHg 94%
    07:00 -6°C° 0 mm 5 mps 752 mmHg 94%
    08:00 -6°C° 0 mm 6 mps 751 mmHg 95%
    09:00 -5°C° 0 mm 6 mps 751 mmHg 93%
    10:00 -5°C° 0 mm 5 mps 750 mmHg 91%
    11:00 -4°C° 0 mm 5 mps 750 mmHg 89%
    12:00 -4°C° 0 mm 5 mps 749 mmHg 89%
    13:00 -2°C° 0 mm 5 mps 748 mmHg 88%
    14:00 -2°C° 0 mm 5 mps 747 mmHg 88%
    15:00 -2°C° 0 mm 5 mps 746 mmHg 89%
    16:00 -2°C° 0 mm 5 mps 746 mmHg 90%
    17:00 -2°C° 0 mm 4 mps 745 mmHg 91%
    18:00 -2°C° 0.2 mm 4 mps 744 mmHg 91%
    19:00 -2°C° 0.2 mm 5 mps 743 mmHg 92%
    20:00 -2°C° 0.2 mm 5 mps 742 mmHg 92%
    21:00 -1°C° 0.3 mm 5 mps 741 mmHg 91%
    22:00 -2°C° 0.3 mm 6 mps 740 mmHg 91%
    23:00 -2°C° 0.3 mm 7 mps 739 mmHg 91%
    Show more